Location: Holiday Acres Laynes 2 Mobile Home Park
(26.7249°N, 81.8671°W)
Time: 12:37:36
(UTC+00:00)

Meteor 1-26 Rocket - Pass Details

Date: 25 November 2020
Orbit: 807 x 928 km, 81.3° (Epoch: 24 January)

Event Time Altitude Azimuth Distance (km) Brightness Sun altitude
Rises 23:28:22 0° 183° (S) 3,514 7.7 -12.2°
Reaches altitude 10° 23:30:48 10° 182° (S) 2,589 7.0 -12.7°
Maximum altitude 23:36:44 81° 96° (E) 937 4.3 -13.9°
Drops below altitude 10° 23:42:46 10° 9° (N) 2,632 6.5 -15.2°
Sets 23:45:16 0° 9° (N) 3,577 7.2 -15.8°
